Date String (YYYY-MM-DD hh:mm:ss) UTC,Instrument flags,absolute air pressure of the measurement (hPa),sample flow rate (lpm),inlet stack bypass flow (lpm),air temperature of the measurement (°C),ambient temperature measured by the external sensor (°C),aerosol sample conditioner tube jacket temperature (°C),OPC LED temperature (°C),internal box temperature (°C),relative humidity of the measurement (%),span deviation,mass concentration of particles derived from Lorenz-Mie calculation of OPC scattering (μg/m³),mass concentration of particles derived from Lorenz-Mie calculation of OPC scattering (μg/m³),mass concentration of particles derived from Lorenz-Mie calculation of OPC scattering (μg/m³)
DateTimeUTC,F1_M11,P_M11,Q1_M11,Q2_M11,T1_M11,T2_M11,T3_M11,T4_M11,T5_M11,U1_M11,ZSPAN_M11,X0_M11,X2_M11,X1_M11
2024-04-11 09:00:00,SystemResetWarning,0833.7,4.99,000.00,024.8,024.0,000.0,033.4,026.7,016.3,0000.0,0002.89,0001.49,0000.99
2024-04-11 09:01:00,SystemResetWarning,0833.7,4.99,000.00,024.8,024.0,000.0,033.4,026.7,016.4,0000.0,0003.86,0001.49,0000.99
2024-04-11 09:02:00,SystemResetWarning,0833.6,5.00,000.00,024.8,024.0,000.0,033.4,026.7,016.4,0000.0,0004.16,0001.48,0000.99
2024-04-11 09:03:00,SystemResetWarning,0833.7,5.00,000.00,024.8,024.0,000.0,033.4,026.7,016.5,0000.0,0004.21,0001.51,0001.00
2024-04-11 09:04:00,SystemResetWarning,0833.6,5.00,000.00,024.8,024.0,000.0,033.4,026.7,016.5,0000.0,0004.18,0001.51,0001.01
2024-04-11 09:05:00,SystemResetWarning,0833.7,5.00,000.00,024.8,024.0,000.0,033.4,026.7,016.6,0000.0,0004.16,0001.50,0001.02
2024-04-11 09:06:00,SystemResetWarning,0833.7,5.01,000.00,024.8,024.0,000.0,033.4,026.7,016.8,0000.0,0004.26,0001.50,0001.03
2024-04-11 09:07:00,SystemResetWarning,0833.7,5.00,000.00,024.8,024.0,000.0,033.4,026.7,017.2,0000.0,0005.26,0001.56,0001.04
2024-04-11 09:08:00,SystemResetWarning,0833.7,5.01,000.00,024.8,024.0,000.0,033.4,026.7,017.3,0000.0,0005.19,0001.52,0001.03
2024-04-11 09:09:00,SystemResetWarning,0833.7,5.01,000.00,024.8,024.0,000.0,033.4,026.7,017.1,0000.0,0005.75,0001.53,0001.03
2024-04-11 09:10:00,SystemResetWarning,0833.7,5.00,000.00,024.8,024.0,000.0,033.4,026.7,016.9,0000.0,0005.94,0001.56,0001.04
2024-04-11 09:11:00,SystemResetWarning,0833.7,4.99,000.00,024.7,024.0,000.0,033.4,026.7,016.8,0000.0,0005.88,0001.56,0001.05
2024-04-11 09:12:00,SystemResetWarning,0833.7,5.00,000.00,024.7,024.0,000.0,033.4,026.6,016.9,0000.0,0004.95,0001.55,0001.06
2024-04-11 09:13:00,SystemResetWarning,0833.7,5.00,000.00,024.7,024.0,000.0,033.4,026.6,017.0,0000.0,0004.66,0001.57,0001.06
2024-04-11 09:14:00,SystemResetWarning,0833.7,5.01,000.00,024.7,024.0,000.0,033.4,026.6,017.1,0000.0,0004.70,0001.59,0001.06
2024-04-11 09:15:00,SystemResetWarning,0833.7,5.01,000.00,024.7,024.0,000.0,033.4,026.6,017.2,0000.0,0004.72,0001.60,0001.07
2024-04-11 09:16:00,SystemResetWarning,0833.7,5.00,000.00,024.7,023.9,000.0,033.4,026.6,017.3,0000.0,0005.05,0001.63,0001.08
2024-04-11 09:17:00,SystemResetWarning,0833.7,4.99,000.00,024.7,023.9,000.0,033.4,026.6,017.3,0000.0,0005.19,0001.66,0001.09
2024-04-11 09:18:00,SystemResetWarning,0833.7,5.00,000.00,024.7,023.9,000.0,033.3,026.6,017.3,0000.0,0004.26,0001.64,0001.11
2024-04-11 09:19:00,SystemResetWarning,0833.7,4.99,000.00,024.7,023.9,000.0,033.3,026.6,017.4,0000.0,0004.50,0001.69,0001.13
2024-04-11 09:20:00,SystemResetWarning,0833.7,4.99,000.00,024.7,023.9,000.0,033.3,026.6,017.4,0000.0,0003.98,0001.71,0001.15
2024-04-11 09:21:00,SystemResetWarning,0833.7,5.00,000.00,024.7,023.9,000.0,033.3,026.6,017.5,0000.0,0004.43,0001.80,0001.17
2024-04-11 09:22:00,SystemResetWarning,0833.7,5.01,000.00,024.7,023.9,000.0,033.3,026.6,017.6,0000.0,0006.01,0001.83,0001.20
2024-04-11 09:23:00,SystemResetWarning,0833.6,5.00,000.00,024.7,023.9,000.0,033.3,026.6,017.7,0000.0,0006.29,0001.87,0001.22
2024-04-11 09:24:00,SystemResetWarning,0833.6,4.99,000.00,024.7,023.9,000.0,033.3,026.6,017.6,0000.0,0007.24,0001.91,0001.26
2024-04-11 09:25:00,SystemResetWarning,0833.6,4.98,000.00,024.7,023.9,000.0,033.3,026.6,017.7,0000.0,0007.33,0001.94,0001.28
2024-04-11 09:26:00,SystemResetWarning,0833.7,5.01,000.00,024.7,023.9,000.0,033.3,026.6,017.5,0000.0,0007.44,0002.03,0001.32
2024-04-11 09:27:00,SystemResetWarning,0833.6,5.01,000.00,024.7,023.9,000.0,033.3,026.6,017.6,0000.0,0007.22,0002.02,0001.35
2024-04-11 09:28:00,SystemResetWarning,0833.6,5.00,000.00,024.7,023.9,000.0,033.3,026.6,017.8,0000.0,0006.87,0002.02,0001.37
2024-04-11 09:29:00,SystemResetWarning,0833.6,4.99,000.00,024.7,023.8,000.0,033.3,026.6,017.7,0000.0,0007.53,0002.04,0001.39
2024-04-11 09:30:00,SystemResetWarning,0833.6,5.00,000.00,024.6,023.8,000.0,033.3,026.5,017.8,0000.0,0007.55,0002.05,0001.42
2024-04-11 09:31:00,SystemResetWarning,0833.6,5.01,000.00,024.6,023.8,000.0,033.3,026.5,017.9,0000.0,0007.55,0002.08,0001.45
2024-04-11 09:32:00,SystemResetWarning,0833.6,5.01,000.00,024.6,023.8,000.0,033.3,026.5,017.7,0000.0,0007.20,0002.06,0001.47
2024-04-11 09:33:00,SystemResetWarning,0833.6,5.00,000.00,024.6,023.8,000.0,033.3,026.5,017.7,0000.0,0005.81,0002.05,0001.49
2024-04-11 09:34:00,SystemResetWarning,0833.6,4.99,000.00,024.6,023.8,000.0,033.3,026.5,017.7,0000.0,0005.64,0002.06,0001.52
2024-04-11 09:35:00,SystemResetWarning,0833.5,4.99,000.00,024.6,023.8,000.0,033.3,026.5,017.8,0000.0,0005.73,0002.07,0001.53
2024-04-11 09:36:00,SystemResetWarning,0833.5,5.01,000.00,024.6,023.8,000.0,033.3,026.5,017.8,0000.0,0006.60,0002.06,0001.54
2024-04-11 09:37:00,SystemResetWarning,0833.5,5.01,000.00,024.6,023.8,000.0,033.2,026.5,017.8,0000.0,0006.58,0002.00,0001.54
2024-04-11 09:38:00,SystemResetWarning,0833.5,5.01,000.00,024.6,023.8,000.0,033.2,026.5,017.8,0000.0,0007.21,0001.99,0001.54
2024-04-11 09:39:00,SystemResetWarning,0833.4,5.00,000.00,024.6,023.8,000.0,033.2,026.5,017.7,0000.0,0007.41,0002.05,0001.57
2024-04-11 09:40:00,SystemResetWarning,0833.4,4.99,000.00,024.6,023.8,000.0,033.2,026.5,017.7,0000.0,0006.38,0002.04,0001.58
2024-04-11 09:41:00,SystemResetWarning,0833.4,4.99,000.00,024.6,023.7,000.0,033.2,026.5,017.7,0000.0,0006.32,0002.03,0001.59
2024-04-11 09:42:00,SystemResetWarning,0833.4,4.99,000.00,024.6,023.7,000.0,033.2,026.4,017.7,0000.0,0006.87,0002.07,0001.61
2024-04-11 09:43:00,SystemResetWarning,0833.4,4.99,000.00,024.5,023.7,000.0,033.2,026.4,017.7,0000.0,0007.68,0002.13,0001.63
2024-04-11 09:44:00,SystemResetWarning,0833.4,5.01,000.00,024.5,023.7,000.0,033.2,026.4,017.7,0000.0,0007.73,0002.17,0001.63
2024-04-11 09:45:00,SystemResetWarning,0833.4,5.01,000.00,024.5,023.7,000.0,033.2,026.4,017.7,0000.0,0007.71,0002.18,0001.64
2024-04-11 09:46:00,SystemResetWarning,0833.4,5.00,000.00,024.5,023.6,000.0,033.2,026.4,017.7,0000.0,0007.50,0002.20,0001.66
2024-04-11 09:47:00,SystemResetWarning,0833.4,5.00,000.00,024.5,023.6,000.0,033.2,026.4,017.8,0000.0,0007.35,0002.25,0001.68
2024-04-11 09:48:00,SystemResetWarning,0833.4,5.00,000.00,024.5,023.6,000.0,033.2,026.4,017.8,0000.0,0007.41,0002.35,0001.70
2024-04-11 09:49:00,SystemResetWarning,0833.4,5.00,000.00,024.5,023.6,000.0,033.2,026.4,017.9,0000.0,0006.98,0002.41,0001.73
2024-04-11 09:50:00,SystemResetWarning,0833.4,5.00,000.00,024.5,023.6,000.0,033.1,026.3,017.8,0000.0,0007.30,0002.41,0001.75
2024-04-11 09:51:00,SystemResetWarning,0833.4,5.00,000.00,024.4,023.6,000.0,033.1,026.3,017.8,0000.0,0007.51,0002.48,0001.79
2024-04-11 09:52:00,SystemResetWarning,0833.4,5.00,000.00,024.4,023.6,000.0,033.1,026.3,017.8,0000.0,0007.74,0002.54,0001.83
2024-04-11 09:53:00,SystemResetWarning,0833.4,5.02,000.00,024.4,023.6,000.0,033.1,026.3,017.8,0000.0,0007.50,0002.59,0001.87
2024-04-11 09:54:00,SystemResetWarning,0833.4,5.01,000.00,024.4,023.5,000.0,033.1,026.3,017.8,0000.0,0006.59,0002.58,0001.90
2024-04-11 09:55:00,SystemResetWarning,0833.4,4.99,000.00,024.4,023.5,000.0,033.1,026.3,017.8,0000.0,0006.56,0002.61,0001.95
2024-04-11 09:56:00,SystemResetWarning,0833.4,4.99,000.00,024.4,023.5,000.0,033.1,026.3,017.8,0000.0,0006.55,0002.67,0002.00
2024-04-11 09:57:00,SystemResetWarning,0833.4,4.99,000.00,024.4,023.5,000.0,033.1,026.3,017.8,0000.0,0006.32,0002.72,0002.04
2024-04-11 09:58:00,SystemResetWarning,0833.4,5.01,000.00,024.4,023.5,000.0,033.1,026.3,017.9,0000.0,0005.45,0002.76,0002.09
2024-04-11 09:59:00,SystemResetWarning,0833.4,5.01,000.00,024.4,023.5,000.0,033.1,026.3,017.9,0000.0,0005.34,0002.73,0002.11
